EHI
0 0 0 0 0 0 0 0 0 0 0 0 0 0 0 0 0 0 1 0 0 1 4 12 20 23 22 22 22 23 22 18 13 9 7 6 4 4 3 3 3 4 5 6 5 4 2 1 0
0 0 0 0 0 0 0 0 0 0 0 0 0 0 0 0 0 0 1 0 0 1 3 11 19 23 24 22 20 18 17 15 13 10 6 5 3 2 2 3 3 3 4 5 6 5 3 1 0
0 0 0 0 0 0 0 0 0 0 0 0 0 0 0 0 0 0 0 0 1 2 3 9 18 23 24 23 18 13 10 10 9 8 6 5 3 2 2 3 3 3 4 5 6 5 3 1 0
0 0 0 0 0 0 0 0 0 0 0 0 0 0 0 0 0 0 1 1 2 2 4 9 16 20 21 21 17 12 8 6 6 5 6 6 5 4 4 3 3 3 3 4 4 5 4 2 1
0 0 0 0 0 0 0 0 0 0 0 0 0 0 0 0 0 2 3 2 1 1 3 8 13 15 15 15 14 11 9 6 4 4 4 5 5 5 5 4 4 3 3 3 3 4 5 3 1
0 0 0 0 0 0 0 0 0 0 0 0 0 0 0 0 1 3 4 3 1 1 3 7 10 11 11 12 11 9 7 5 3 2 3 3 3 4 5 5 5 4 3 3 3 4 5 3 1
0 0 0 0 0 0 0 0 0 0 0 0 0 0 0 0 2 3 4 3 2 1 2 5 7 8 8 8 6 6 4 3 1 1 1 2 3 4 5 5 4 4 4 3 3 4 4 3 2
0 0 0 0 0 0 0 0 0 0 0 0 0 0 0 0 1 4 5 5 3 1 1 3 5 5 4 3 2 2 1 1 0 0 0 1 2 3 4 4 2 3 3 3 3 3 2 2 2
0 0 0 0 0 0 0 0 0 0 0 0 0 0 0 0 1 4 6 5 3 1 0 2 4 3 1 0 0 0 0 0 0 0 0 1 1 2 2 2 1 2 2 3 3 2 1 1 1
0 0 0 0 0 0 0 0 0 0 0 0 0 0 0 0 1 3 5 5 3 1 0 1 2 2 1 0 0 0 0 0 0 1 1 2 2 1 0 0 0 1 1 1 2 2 1 0 0
0 0 0 0 0 0 0 0 0 0 0 0 0 0 0 0 0 2 5 6 5 2 0 0 1 2 1 0 0 0 0 0 0 0 1 2 2 1 0 0 0 0 0 0 1 1 0 0 0
0 0 0 0 0 0 0 0 0 0 0 0 0 0 0 0 0 1 4 6 5 3 1 0 1 1 0 0 0 0 0 0 0 0 0 1 1 1 0 0 0 0 0 0 0 0 0 0 0
0 0 0 0 0 0 0 0 0 0 0 0 0 0 0 0 0 0 2 4 5 3 1 0 0 0 0 0 0 0 0 0 0 0 0 0 0 0 0 0 0 0 0 0 0 0 0 0 0
0 0 0 0 0 0 0 0 0 0 0 0 0 0 0 0 0 0 0 2 3 2 0 0 0 0 0 0 0 0 0 0 0 0 0 0 0 0 0 0 0 0 0 0 0 0 0 0 0
0 0 0 0 0 0 0 0 0 0 0 0 0 0 0 0 0 0 0 1 2 2 1 0 0 0 0 0 0 0 0 0 0 0 0 0 0 0 0 0 0 0 0 0 0 0 0 0 0
0 0 0 0 0 0 0 0 0 0 0 0 0 0 0 0 0 0 0 1 2 2 1 1 1 1 1 0 0 0 0 0 0 0 0 0 0 0 0 0 0 0 0 0 0 0 0 0 0
0 0 0 0 0 0 0 0 0 0 0 0 0 0 0 0 0 0 0 1 2 2 1 1 2 3 2 1 0 0 0 0 0 0 0 0 0 0 0 0 0 0 0 0 0 0 0 0 0
0 0 0 0 0 0 0 0 0 0 0 0 0 0 0 0 0 0 0 0 1 1 0 1 3 3 2 1 0 0 0 0 0 0 0 0 0 0 0 0 0 0 0 0 0 0 0 0 0
0 0 0 0 0 0 0 0 0 0 0 0 0 0 0 0 0 0 0 0 0 0 0 2 3 3 2 1 0 0 0 0 0 0 0 0 0 0 0 0 0 0 0 0 0 0 0 0 0
0 0 0 0 0 0 0 0 0 0 0 0 0 0 0 0 0 0 0 0 0 0 0 1 2 3 2 1 0 0 0 0 0 0 0 0 0 0 0 0 0 0 0 0 0 0 0 0 0
0 0 0 0 0 0 0 0 0 0 0 0 0 0 0 0 0 0 0 0 0 0 0 0 1 2 1 0 0 0 0 0 0 0 0 0 0 0 0 0 0 0 0 0 0 0 0 0 0
0 0 0 0 0 0 0 0 0 0 0 0 0 0 0 0 0 0 0 0 0 0 0 0 0 0 0 0 0 0 0 0 0 0 0 0 0 0 0 0 0 0 0 0 0 0 0 0 0
0 0 0 0 0 0 0 0 0 0 0 0 0 0 0 0 0 0 0 0 0 0 0 0 0 0 0 0 0 0 0 1 1 1 0 0 0 0 0 0 0 0 0 0 0 0 0 0 0
0 0 0 0 0 0 0 0 0 0 0 0 0 0 0 0 0 0 0 0 0 0 0 0 0 0 0 0 0 0 1 2 2 1 0 0 0 0 0 0 0 0 0 0 0 0 0 0 0
0 0 0 0 0 0 0 0 0 0 0 0 0 0 0 0 0 0 0 0 0 0 0 0 0 0 0 0 0 0 1 2 3 1 0 0 0 0 0 0 0 0 0 0 0 0 0 0 0
0 0 0 0 0 0 0 0 0 0 0 0 0 0 0 0 0 0 0 0 0 0 0 0 0 0 0 0 0 0 1 2 2 1 0 0 0 0 0 0 0 0 0 0 0 0 0 0 0
0 0 0 0 0 0 0 0 0 0 0 0 0 0 0 0 0 0 0 0 0 0 0 0 0 0 0 0 0 0 0 1 1 0 0 0 0 0 0 0 0 0 0 0 0 0 0 0 0
0 0 0 0 0 0 0 0 0 0 0 0 0 0 0 0 0 0 0 0 0 0 0 0 0 0 0 0 0 0 0 0 0 0 0 0 0 0 0 0 0 0 0 0 0 0 0 0 0
0 0 0 0 0 0 0 0 0 0 0 0 0 0 0 0 0 0 0 0 0 0 0 0 0 0 0 0 0 0 0 0 0 0 0 0 0 0 0 0 0 0 0 0 0 0 0 0 0
0 0 0 0 0 0 0 0 0 0 0 0 0 0 0 0 0 0 0 0 0 0 0 0 0 0 0 0 0 0 0 0 0 0 0 0 0 0 0 0 0 0 0 0 0 0 0 0 0
Wind_Speed
7 4 2 4 5 3 4 6 4 2 1 1 1 6 6 4 3 5 3 3 5 5 5 6 8 7 7 7 7 7 7 7 6 6 6 6 7 7 7 7 7 7 8 8 8 8 9 9 9
2 2 4 4 4 2 6 5 5 6 3 1 2 4 5 3 2 6 3 3 7 6 5 5 8 8 6 6 6 6 6 6 5 5 5 5 6 6 6 6 6 7 7 7 8 8 8 8 9
3 1 4 4 4 6 5 4 5 3 2 1 2 3 5 4 4 5 4 6 6 5 4 5 8 7 7 6 5 5 5 5 5 5 5 5 5 5 5 5 5 6 6 6 7 7 8 8 8
2 3 4 2 6 6 5 3 1 0 2 2 3 3 3 1 4 4 5 7 7 5 4 5 7 7 6 5 5 4 3 3 4 4 4 4 5 5 5 5 4 5 5 6 6 7 8 8 8
3 4 2 2 6 5 4 4 2 1 0 2 3 3 2 2 3 5 6 7 7 5 3 4 7 6 6 5 4 4 3 2 3 3 3 4 4 4 4 4 4 5 5 6 6 7 7 7 7
4 3 3 4 6 4 3 3 1 1 1 1 3 3 2 0 3 4 5 6 6 6 4 3 6 6 6 5 4 4 2 2 2 2 2 3 3 3 4 4 4 4 4 5 7 7 7 7 7
4 3 4 4 3 3 3 1 1 1 1 1 2 4 2 2 2 4 5 6 5 5 4 3 2 3 4 4 4 4 3 1 1 1 1 2 3 3 3 3 3 3 3 4 6 7 7 7 7
4 3 3 3 4 4 2 1 0 1 2 2 2 5 4 4 2 3 4 5 4 4 3 2 2 2 2 1 2 3 3 2 1 0 0 1 2 3 3 3 3 3 3 3 4 6 7 7 7
3 2 4 4 4 3 1 1 2 1 1 1 1 3 4 3 1 4 3 2 2 2 2 2 2 2 1 1 1 1 2 2 1 0 0 0 1 2 2 2 3 3 3 3 3 4 5 6 6
4 4 7 3 2 2 1 1 2 2 2 2 2 2 1 1 2 3 2 2 2 1 1 2 2 2 2 1 1 0 0 1 1 1 1 1 1 1 1 2 3 3 3 3 3 4 4 4 2
4 6 4 3 2 1 2 3 2 2 5 6 5 3 1 1 1 3 4 4 4 3 2 2 3 2 2 1 1 1 0 0 1 1 1 1 1 1 1 1 2 2 2 2 2 2 1 2 2
3 5 4 3 2 2 3 3 4 6 9 6 6 5 3 3 4 4 5 5 4 3 4 3 3 3 2 2 1 1 1 1 1 1 2 2 1 1 2 2 2 2 1 1 1 1 2 2 3
4 4 4 4 4 4 4 6 5 9 10 6 5 5 6 6 6 5 5 5 4 4 4 4 4 4 3 2 2 1 2 2 2 2 2 2 2 2 2 2 2 2 2 2 2 2 2 3 4
3 3 5 6 6 5 6 8 6 12 7 6 6 7 7 7 7 5 3 4 4 4 4 4 4 4 4 3 3 2 3 3 2 2 3 3 3 3 3 3 3 3 3 3 3 3 3 3 3
1 3 6 5 5 4 2 8 10 11 5 7 8 7 7 7 6 6 6 6 5 4 3 3 4 4 4 4 4 3 3 3 3 3 3 4 4 4 4 3 4 4 4 4 3 3 3 3 3
1 1 4 4 4 4 3 10 8 6 5 7 8 7 6 6 6 6 5 5 5 4 3 4 3 3 4 4 4 3 3 3 3 3 3 5 5 5 4 4 4 4 4 4 3 3 3 3 3
1 3 4 4 3 3 5 10 8 4 5 8 8 7 7 6 5 5 5 5 5 5 4 3 3 4 4 4 4 4 3 4 4 3 4 4 5 5 5 4 4 4 4 4 4 3 3 3 3
5 5 5 5 3 2 7 13 13 7 7 9 8 7 7 6 7 5 4 4 5 4 4 3 3 4 4 3 2 2 3 3 3 4 4 5 5 6 5 5 5 5 4 4 4 4 3 3 3
4 4 7 7 4 5 10 15 16 11 8 9 8 7 7 7 6 4 4 3 3 3 3 4 3 4 3 2 2 3 3 3 4 4 6 6 6 7 6 5 5 5 5 6 6 4 4 3 2
5 6 7 7 4 5 8 14 13 10 9 9 10 9 8 6 4 4 3 3 3 4 4 4 5 4 4 4 4 4 4 4 4 4 5 6 7 7 6 7 6 6 5 6 6 5 4 3 3
8 8 7 6 5 4 6 11 7 6 5 5 6 7 7 8 7 6 4 4 4 4 5 5 6 5 5 5 3 2 2 2 3 4 4 6 7 7 7 8 7 6 6 6 7 7 7 5 4
8 6 6 5 2 5 1 7 8 5 5 5 5 5 6 6 6 5 5 5 5 6 5 5 5 5 5 5 4 5 5 5 6 5 5 5 6 7 7 8 8 7 6 7 7 7 5 6 5
6 2 3 3 3 4 3 5 10 4 6 7 6 6 6 7 7 6 6 6 6 5 4 4 4 4 4 5 5 6 6 6 5 4 6 6 5 6 7 7 7 7 7 7 8 7 6 6 6
3 2 2 2 2 5 7 7 10 5 6 5 4 4 5 4 4 4 4 4 4 3 3 3 3 4 4 4 5 6 7 7 6 6 6 5 4 5 7 7 7 7 7 8 8 8 8 7 7
3 4 2 3 2 8 4 6 11 7 6 6 5 5 4 4 3 2 3 3 3 3 3 3 3 5 4 4 5 6 7 7 7 7 6 6 5 5 7 7 7 7 8 8 8 7 8 8 8
5 7 7 6 6 5 3 8 9 5 3 2 3 3 2 3 3 4 4 4 4 4 4 4 4 5 4 4 5 5 5 5 5 6 6 6 6 6 6 7 7 8 9 9 8 7 8 7 8
5 5 4 4 1 4 6 6 8 3 3 3 1 1 1 3 4 4 4 4 4 4 4 4 4 5 5 5 4 4 5 5 6 6 6 6 6 6 6 7 7 8 8 9 8 7 8 8 8
4 5 4 4 4 5 6 5 5 3 3 2 1 1 3 3 4 4 4 4 4 4 4 4 4 5 5 4 4 4 5 5 5 5 6 6 6 6 6 7 7 7 8 8 8 7 7 8 8
5 4 4 3 4 4 5 7 5 6 5 3 3 3 3 4 4 4 4 4 4 3 3 3 3 4 4 4 4 4 5 5 5 5 6 6 6 6 6 6 7 7 7 7 7 7 7 8 7
5 6 7 5 5 4 4 9 4 3 3 2 3 3 4 4 3 3 4 4 3 3 3 3 4 4 4 4 4 4 4 4 4 5 5 5 5 5 6 6 6 7 7 7 7 7 7 8 8
Wind_Direction
339 341 54 60 62 62 237 244 236 256 216 236 128 114 116 107 128 156 196 172 137 139 140 122 111 108 111 112 112 111 116 119 120 121 123 130 134 136 141 144 148 151 151 151 151 147 144 142 139
347 354 59 67 102 173 253 242 227 233 217 180 96 96 90 84 105 127 157 151 134 133 130 122 112 106 105 111 114 116 116 122 125 128 131 133 138 141 146 153 157 158 158 159 157 152 153 151 149
332 69 87 94 158 195 222 226 216 236 259 166 78 67 103 132 146 154 168 142 122 123 125 122 112 108 103 101 106 117 125 125 130 134 140 145 149 151 150 154 162 165 165 165 161 158 159 159 157
51 58 65 113 224 230 221 229 225 308 0 36 97 65 62 80 157 159 139 127 118 121 120 122 115 112 105 101 98 99 113 130 133 139 148 157 155 154 159 162 160 166 168 166 164 164 164 163 164
65 84 104 227 239 248 247 261 256 257 319 9 87 103 71 351 97 116 125 127 128 131 129 124 112 108 107 105 96 93 96 107 135 141 147 153 155 156 157 159 162 165 171 173 170 170 170 170 171
65 85 137 224 241 253 268 284 278 247 267 14 90 113 168 242 103 125 128 129 133 135 132 122 106 98 92 93 89 80 87 101 115 142 153 158 161 165 164 165 165 167 172 180 181 181 180 179 180
112 129 190 218 235 241 253 296 156 188 236 258 144 129 187 249 174 139 126 125 126 128 129 127 123 109 92 84 78 71 67 87 112 130 161 151 156 169 177 175 179 178 180 185 191 192 189 186 188
131 127 216 230 221 228 282 347 136 163 226 266 133 152 194 233 212 109 100 102 110 118 129 138 133 122 122 128 80 63 51 38 44 75 121 154 176 183 183 189 192 190 185 191 202 201 197 194 196
97 106 219 224 207 218 325 357 320 300 208 306 171 182 202 199 113 85 78 66 96 116 145 152 153 148 145 152 103 76 43 21 13 263 357 201 207 201 194 207 203 197 199 202 211 213 207 200 203
113 188 224 227 205 216 302 288 285 323 305 280 306 306 0 118 116 132 152 165 161 187 199 167 165 166 160 155 126 147 37 351 322 227 207 216 213 218 208 207 209 210 207 211 222 232 212 204 208
172 206 227 249 250 236 279 285 271 233 254 226 216 231 230 195 173 183 191 193 194 194 197 189 175 173 165 164 163 167 202 298 297 253 216 208 210 220 206 186 198 205 204 205 226 225 227 216 209
205 238 231 243 260 250 250 269 275 234 238 229 211 208 211 226 228 218 210 203 200 199 205 205 184 175 177 170 184 184 190 221 251 262 234 198 203 216 211 200 202 193 197 203 210 219 224 226 222
230 260 264 257 265 256 254 250 256 254 250 251 239 224 222 226 236 232 216 202 195 202 212 207 189 184 183 179 205 197 205 217 226 242 247 217 206 213 214 215 205 202 198 198 204 218 226 233 231
228 264 282 267 259 257 251 264 248 256 245 239 231 228 229 225 225 229 226 210 201 205 211 211 198 194 185 191 202 211 214 219 224 228 239 231 214 211 212 216 216 210 203 203 204 214 223 234 234
320 310 302 260 228 234 235 272 237 249 237 237 237 234 237 235 225 220 217 205 198 200 207 214 211 198 193 203 213 215 217 214 220 226 230 234 226 215 212 215 220 218 209 203 206 216 218 237 239
6 311 285 270 201 197 182 264 257 244 213 233 238 239 237 237 230 228 223 212 196 191 201 219 218 207 212 215 221 221 221 220 224 227 226 230 229 221 214 218 223 220 208 200 202 209 217 234 238
236 243 250 282 221 190 208 257 268 251 224 241 241 237 234 242 249 240 220 212 199 194 199 214 218 215 221 222 222 225 221 222 227 228 229 231 230 226 221 220 223 216 210 206 210 212 212 228 242
212 228 250 253 248 233 251 263 274 270 244 245 241 236 232 230 235 231 223 219 204 200 199 209 218 222 223 229 231 236 236 230 228 230 233 235 233 229 226 223 222 214 213 211 207 211 222 222 229
202 228 255 260 260 256 256 266 273 272 251 242 238 229 225 228 233 227 221 221 202 201 201 211 215 230 219 221 228 232 238 237 234 233 232 234 233 229 226 229 219 215 216 215 209 207 215 228 212
233 250 263 279 275 264 273 275 272 264 244 230 223 221 217 221 233 235 231 223 202 207 213 219 224 232 229 223 221 218 225 233 235 237 238 235 233 230 230 222 217 215 218 219 212 202 208 224 205
231 228 239 259 311 307 306 295 278 273 252 238 215 213 206 201 209 220 223 225 209 218 224 228 232 235 238 233 229 240 248 253 249 242 239 238 235 233 229 225 222 217 215 220 217 207 207 218 219
244 229 226 244 288 286 320 293 284 273 282 255 232 218 210 207 208 216 220 224 218 227 229 231 235 238 240 233 225 227 236 245 244 240 241 249 240 237 227 223 223 220 219 222 222 219 217 207 221
219 209 219 232 216 280 247 246 277 278 264 258 240 225 215 209 205 214 221 223 225 223 227 233 235 242 245 238 232 232 242 244 247 245 245 248 243 237 230 224 222 221 221 222 221 219 220 213 218
160 57 33 45 94 262 223 206 273 242 230 248 242 229 212 209 213 222 234 229 233 229 234 242 243 253 249 245 242 235 242 246 249 252 248 249 245 239 232 229 225 225 225 224 223 218 220 222 222
130 107 25 334 290 249 214 212 252 249 241 231 225 220 218 214 214 238 244 238 242 242 247 254 253 263 259 256 257 248 241 239 241 247 245 247 247 242 235 233 230 229 227 228 225 218 221 220 222
183 160 174 211 231 272 247 232 253 271 280 251 213 196 208 235 248 250 251 239 238 243 248 254 261 268 273 267 267 257 247 242 244 245 246 245 245 245 242 236 239 236 229 231 225 221 224 224 225
161 198 179 151 219 266 260 274 299 326 10 22 43 64 279 267 265 260 262 252 244 246 251 246 255 269 274 274 272 271 261 258 255 254 251 249 249 249 241 238 243 240 233 228 224 227 229 227 229
166 155 127 159 200 249 270 259 246 261 276 317 342 289 282 285 287 279 272 263 249 243 251 249 245 253 259 264 266 276 275 269 263 259 256 254 251 248 245 244 247 245 238 229 223 228 231 227 231
164 168 168 173 190 196 255 262 230 216 221 226 250 258 272 279 289 284 285 275 260 269 269 265 264 263 267 271 276 283 283 280 273 262 257 254 256 252 249 247 249 246 241 229 225 228 228 230 236
192 187 165 180 224 209 223 267 275 230 233 237 270 286 298 289 290 287 286 294 291 280 280 281 276 270 267 267 278 282 283 285 280 275 270 260 259 256 252 251 253 252 246 232 227 229 231 231 236